Hourly Weather Bolshoe Alekseycevo

Today, 4 August, Wednesday

Time Temperature Precipitation Wind Pressure Humidity
00:00 +13°C° 0 mm 3 mps 742 mmHg 85%
01:00 +12°C° 0 mm 3 mps 743 mmHg 87%
02:00 +11°C° 0 mm 3 mps 743 mmHg 90%
03:00 +11°C° 0 mm 3 mps 744 mmHg 90%
04:00 +11°C° 0 mm 3 mps 744 mmHg 89%
05:00 +11°C° 0 mm 3 mps 744 mmHg 89%
06:00 +13°C° 0 mm 3 mps 745 mmHg 80%
07:00 +16°C° 0 mm 3 mps 745 mmHg 71%
08:00 +17°C° 0 mm 3 mps 746 mmHg 62%
09:00 +19°C° 0 mm 3 mps 746 mmHg 54%
10:00 +20°C° 0 mm 3 mps 746 mmHg 47%
11:00 +21°C° 0 mm 4 mps 746 mmHg 39%
12:00 +21°C° 0 mm 4 mps 746 mmHg 40%
13:00 +21°C° 0 mm 4 mps 746 mmHg 40%
14:00 +21°C° 0 mm 4 mps 746 mmHg 41%
15:00 +20°C° 0 mm 4 mps 746 mmHg 44%
16:00 +20°C° 0 mm 3 mps 746 mmHg 47%
17:00 +19°C° 0 mm 3 mps 747 mmHg 50%
18:00 +18°C° 0 mm 2 mps 747 mmHg 54%
19:00 +17°C° 0 mm 2 mps 747 mmHg 58%
20:00 +15°C° 0 mm 1 mps 747 mmHg 62%
21:00 +15°C° 0 mm 1 mps 747 mmHg 64%
22:00 +14°C° 0 mm 1 mps 747 mmHg 67%
23:00 +13°C° 0 mm 1 mps 748 mmHg 69%

Tomorrow, 5 August, Thursday

Time Temperature Precipitation Wind Pressure Humidity
00:00 +13°C° 0 mm 1 mps 748 mmHg 68%
01:00 +14°C° 0 mm 1 mps 748 mmHg 68%
02:00 +13°C° 0 mm 0 mps 748 mmHg 67%
03:00 +13°C° 0 mm 0 mps 748 mmHg 67%
04:00 +13°C° 0 mm 0 mps 748 mmHg 66%
05:00 +13°C° 0 mm 0 mps 748 mmHg 65%
06:00 +15°C° 0 mm 0 mps 749 mmHg 61%
07:00 +16°C° 0 mm 0 mps 749 mmHg 57%
08:00 +19°C° 0 mm 1 mps 749 mmHg 53%
09:00 +20°C° 0 mm 1 mps 749 mmHg 48%
10:00 +21°C° 0 mm 1 mps 749 mmHg 42%
11:00 +22°C° 0 mm 1 mps 749 mmHg 37%
12:00 +23°C° 0 mm 1 mps 749 mmHg 36%
13:00 +23°C° 0 mm 1 mps 748 mmHg 35%
14:00 +24°C° 0 mm 1 mps 748 mmHg 34%
15:00 +22°C° 0 mm 1 mps 748 mmHg 39%
16:00 +21°C° 0 mm 1 mps 748 mmHg 44%
17:00 +19°C° 0 mm 2 mps 748 mmHg 50%
18:00 +19°C° 0.1 mm 1 mps 748 mmHg 60%
19:00 +16°C° 0.1 mm 1 mps 748 mmHg 70%
20:00 +15°C° 0.1 mm 1 mps 748 mmHg 80%
21:00 +15°C° 0.4 mm 1 mps 748 mmHg 85%
22:00 +14°C° 0.4 mm 1 mps 748 mmHg 90%
23:00 +14°C° 0.4 mm 1 mps 748 mmHg 94%

Day after tomorrow, 6 August, Friday

Time Temperature Precipitation Wind Pressure Humidity
00:00 +13°C° 1 mm 2 mps 747 mmHg 95%
01:00 +12°C° 1 mm 3 mps 747 mmHg 95%
02:00 +12°C° 1 mm 3 mps 747 mmHg 96%
03:00 +12°C° 1.7 mm 3 mps 747 mmHg 96%
04:00 +12°C° 1.7 mm 4 mps 747 mmHg 96%
05:00 +12°C° 1.7 mm 4 mps 747 mmHg 96%
06:00 +12°C° 0.1 mm 4 mps 747 mmHg 95%
07:00 +12°C° 0.1 mm 4 mps 747 mmHg 94%
08:00 +12°C° 0.1 mm 4 mps 747 mmHg 93%
09:00 +13°C° 0 mm 4 mps 747 mmHg 90%
10:00 +13°C° 0 mm 4 mps 747 mmHg 87%
11:00 +14°C° 0 mm 4 mps 747 mmHg 84%
12:00 +14°C° 0 mm 4 mps 747 mmHg 84%
13:00 +14°C° 0 mm 4 mps 746 mmHg 83%
14:00 +14°C° 0 mm 4 mps 746 mmHg 83%
15:00 +14°C° 0 mm 4 mps 746 mmHg 84%
16:00 +14°C° 0 mm 3 mps 746 mmHg 84%
17:00 +14°C° 0 mm 3 mps 747 mmHg 85%
18:00 +13°C° 0 mm 3 mps 747 mmHg 88%
19:00 +13°C° 0 mm 3 mps 747 mmHg 92%
20:00 +13°C° 0 mm 3 mps 747 mmHg 95%
21:00 +13°C° 0.1 mm 3 mps 747 mmHg 96%
22:00 +13°C° 0.1 mm 3 mps 747 mmHg 96%
23:00 +13°C° 0.1 mm 4 mps 747 mmHg 97%

7 August, Saturday

Time Temperature Precipitation Wind Pressure Humidity
00:00 +13°C° 0.1 mm 4 mps 746 mmHg 97%
01:00 +13°C° 0.1 mm 4 mps 746 mmHg 97%
02:00 +13°C° 0.1 mm 4 mps 746 mmHg 97%
03:00 +13°C° 0 mm 4 mps 747 mmHg 97%
04:00 +13°C° 0 mm 4 mps 747 mmHg 96%
05:00 +13°C° 0 mm 4 mps 747 mmHg 96%
06:00 +13°C° 0.2 mm 4 mps 747 mmHg 96%
07:00 +13°C° 0.2 mm 4 mps 747 mmHg 95%
08:00 +13°C° 0.2 mm 4 mps 747 mmHg 95%
09:00 +13°C° 0 mm 4 mps 747 mmHg 95%
10:00 +14°C° 0 mm 4 mps 747 mmHg 94%
11:00 +14°C° 0 mm 4 mps 748 mmHg 94%
12:00 +14°C° 0.3 mm 5 mps 748 mmHg 94%
13:00 +14°C° 0.3 mm 5 mps 748 mmHg 95%
14:00 +14°C° 0.3 mm 5 mps 748 mmHg 95%
15:00 +14°C° 1 mm 5 mps 748 mmHg 96%
16:00 +14°C° 1 mm 5 mps 748 mmHg 96%
17:00 +14°C° 1 mm 5 mps 748 mmHg 97%
18:00 +14°C° 0.8 mm 5 mps 748 mmHg 97%
19:00 +14°C° 0.8 mm 5 mps 748 mmHg 97%
20:00 +14°C° 0.8 mm 5 mps 747 mmHg 97%
21:00 +14°C° 0.7 mm 5 mps 747 mmHg 97%
22:00 +14°C° 0.7 mm 5 mps 747 mmHg 98%
23:00 +14°C° 0.7 mm 5 mps 747 mmHg 98%

8 August, Sunday

Time Temperature Precipitation Wind Pressure Humidity
00:00 +14°C° 0.3 mm 5 mps 747 mmHg 98%
01:00 +14°C° 0.3 mm 5 mps 747 mmHg 98%
02:00 +14°C° 0.3 mm 5 mps 746 mmHg 98%
03:00 +14°C° 0.4 mm 5 mps 746 mmHg 98%
04:00 +14°C° 0.4 mm 5 mps 746 mmHg 98%
05:00 +14°C° 0.4 mm 5 mps 746 mmHg 98%
06:00 +15°C° 0.1 mm 5 mps 746 mmHg 97%
07:00 +15°C° 0.1 mm 5 mps 746 mmHg 96%
08:00 +15°C° 0.1 mm 5 mps 746 mmHg 95%
09:00 +16°C° 0 mm 5 mps 746 mmHg 93%
10:00 +17°C° 0 mm 4 mps 746 mmHg 91%
11:00 +17°C° 0 mm 4 mps 746 mmHg 90%
12:00 +18°C° 0 mm 4 mps 746 mmHg 86%
13:00 +19°C° 0 mm 3 mps 746 mmHg 82%
14:00 +20°C° 0 mm 3 mps 746 mmHg 79%
15:00 +20°C° 0 mm 3 mps 746 mmHg 77%
16:00 +20°C° 0 mm 4 mps 746 mmHg 76%
17:00 +21°C° 0 mm 4 mps 746 mmHg 74%
18:00 +19°C° 0.1 mm 4 mps 747 mmHg 79%
19:00 +18°C° 0.1 mm 3 mps 747 mmHg 84%
20:00 +17°C° 0.1 mm 3 mps 747 mmHg 89%
21:00 +17°C° 0.2 mm 3 mps 747 mmHg 92%
22:00 +17°C° 0.2 mm 3 mps 747 mmHg 94%
23:00 +16°C° 0.2 mm 3 mps 747 mmHg 97%

9 August, Monday

Time Temperature Precipitation Wind Pressure Humidity
00:00 +16°C° 0.4 mm 3 mps 747 mmHg 97%
01:00 +16°C° 0.4 mm 2 mps 747 mmHg 98%
02:00 +15°C° 0.4 mm 2 mps 747 mmHg 98%
03:00 +15°C° 0.3 mm 2 mps 747 mmHg 98%
04:00 +15°C° 0.3 mm 2 mps 747 mmHg 98%
05:00 +15°C° 0.3 mm 2 mps 747 mmHg 98%
06:00 +15°C° 0.4 mm 2 mps 747 mmHg 98%
07:00 +16°C° 0.4 mm 2 mps 747 mmHg 98%
08:00 +16°C° 0.4 mm 2 mps 747 mmHg 98%
09:00 +16°C° 0.1 mm 2 mps 747 mmHg 97%
10:00 +16°C° 0.1 mm 1 mps 747 mmHg 97%
11:00 +16°C° 0.1 mm 1 mps 748 mmHg 96%
12:00 +16°C° 0.1 mm 1 mps 748 mmHg 95%
13:00 +16°C° 0.1 mm 1 mps 748 mmHg 95%
14:00 +16°C° 0.1 mm 1 mps 748 mmHg 94%
15:00 +16°C° 0 mm 1 mps 748 mmHg 94%
16:00 +16°C° 0 mm 1 mps 748 mmHg 93%
17:00 +16°C° 0 mm 1 mps 749 mmHg 93%
18:00 +16°C° 0 mm 1 mps 749 mmHg 94%
19:00 +15°C° 0 mm 1 mps 749 mmHg 96%
20:00 +15°C° 0 mm 1 mps 749 mmHg 97%
21:00 +14°C° 0 mm 1 mps 749 mmHg 97%
22:00 +14°C° 0 mm 1 mps 749 mmHg 97%
23:00 +14°C° 0 mm 1 mps 749 mmHg 97%
Show more

We Need Your Consent

Meteoprog and our Service Providers may store and access personal data such as cookies, device identifiers or other similar technologies on your device and process such data to personalise content and ads, as well as provide social media features and to analyse the traffic.

  • Store and/or access information on your device

    Cookies, device identifiers or other information can be stored or accessed on your device for the purposes indicated above.

  • Personalised ads and content, ad and content measurement, audience insights, and products development

    Ads and content can be personalised based on a profile. More data can be added to better personalise ads and content. Ad and content performance can be measured. Insights about the audience who saw the ads and content can be derived. Such data can be used to develop or improve user’s experience, systems and software.

By clicking ‘I Agree’ you will allow the use of indicated cookies, device identifiers, web beacons or other similar technologies. Your settings can be changed in the browser on your device.

For certain purposes, legitimate interests may be relied on, rather than consent. You can read more about this in our Privacy and Cookie Policy.